SAOCOM 1A (43641 NORAD) Tracking and Keplerian Element Data

This shows tracking and keplerian element data for the satellite.

Feedback or suggestion? Click here.




ElementValue
Catalog43641
NameSAOCOM 1A
Epoch Orbit2914
Epoch Day112.81507694
Epoch Year2019
RAAN299.973
Inclination97.8908
Eccentricity0.000154
Argument of Perigee75.3769
Mean Anonmoly284.7608
Mean Motion14.82147605
Decay Rate-5.2E-06
L11 43641U 18076A 19112.81507694 -.00000520 00000-0 -58814-4 0 9993
L22 43641 97.8908 299.9730 0001540 75.3769 284.7608 14.82147605 29146

Live tracking and technical data element details for SAOCOM 1A (NORAD 43641). SAOCOM 1A can be tracked NOW for your location showing map with azimuth and elevation plus other details from your city location.

Track the satellite on the map from your city or location and see movement details for azimuth, elevation, latitude, longitude, range, height, and movement on the map or in text.







IsCatalogInMostPopularTable: catalog: 43641, numindb: 117
Update: records affected: 1



GetName: 43641 SAOCOM 1A

Hit Count: updated at: Tue, 23 Apr 2019 20:07:30 GMT